FW9822 Weather Reports


time (UTC)temp
C
wind
direction
speed
KPH
gust
KPH
rain 1hr
cm
rain 24hr
cm
rain mn
cm
humidity
%
barometer
mb
20260504160308 19 216 3.2 11.3 0.00 0.00 0.00 42 1003.1
20260504150703 18 125 3.2 9.7 0.00 0.00 0.00 44 1003.6
20260504150157 18 222 3.2 9.7 0.00 0.00 0.00 45 1003.6
20260504141115 16 117 1.6 6.4 0.00 0.00 0.00 54 1003.6
20260504140613 16 196 1.6 6.4 0.00 0.00 0.00 51 1003.6
20260504140345 16 196 1.6 6.4 0.00 0.00 0.00 49 1003.7
20260504130605 13 211 3.2 8.0 0.00 0.00 0.00 61 1004.0
20260504130105 13 211 1.6 8.0 0.00 0.00 0.00 58 1004.2
20260504110529 7 79 0.0 0.0 0.00 0.00 0.00 84 1004.7
20260504100415 7 242 0.0 0.0 0.00 0.00 0.00 84 1004.5
20260504081709 7 242 0.0 0.0 0.00 0.00 0.00 84 1004.9
20260504081205 7 242 0.0 0.0 0.00 0.00 0.00 84 1004.8
20260504080657 7 242 0.0 0.0 0.00 0.00 0.00 84 1004.9
20260504080152 7 242 0.0 0.0 0.00 0.00 0.00 84 1004.7
20260504050511 5 244 0.0 0.0 0.00 0.00 0.00 81 1005.4
20260504050012 5 244 0.0 0.0 0.00 0.00 0.00 80 1005.5
20260504045511 5 244 0.0 0.0 0.00 0.00 0.00 80 1005.4
20260504045010 6 244 0.0 0.0 0.00 0.00 0.00 80 1005.4
20260504044511 6 244 0.0 0.0 0.00 0.00 0.00 80 1005.4
20260504044011 6 244 0.0 0.0 0.00 0.00 0.00 79 1005.4
20260504043510 6 244 0.0 0.0 0.00 0.00 0.00 79 1005.4
20260504043011 6 244 0.0 0.0 0.00 0.00 0.00 79 1005.3
20260504042744 6 244 0.0 0.0 0.00 0.00 0.00 79 1005.3
20260504042012 6 244 0.0 0.0 0.00 0.00 0.00 78 1005.3
20260504041512 6 244 0.0 0.0 0.00 0.00 0.00 78 1005.3
20260504041358 6 244 0.0 0.0 0.00 0.00 0.00 78 1005.3
20260504041243 6 244 0.0 0.0 0.00 0.00 0.00 78 1005.2
20260504040010 6 244 0.0 0.0 0.00 0.00 0.00 78 1005.2
20260504035502 6 244 0.0 0.0 0.00 0.00 0.00 77 1005.3
20260504035228 6 244 0.0 0.0 0.00 0.00 0.00 76 1005.3
20260504034724 6 244 0.0 0.0 0.00 0.00 0.00 76 1005.4
20260504033945 6 244 0.0 0.0 0.00 0.00 0.00 76 1005.4
20260504033439 6 244 0.0 0.0 0.00 0.00 0.00 76 1005.3
20260504033203 7 244 0.0 0.0 0.00 0.00 0.00 76 1005.2
20260504032427 7 244 0.0 0.0 0.00 0.00 0.00 75 1005.2
20260504032151 7 244 0.0 0.0 0.00 0.00 0.00 75 1005.1
20260504031415 7 244 0.0 0.0 0.00 0.00 0.00 75 1005.1
20260504030908 7 244 0.0 0.0 0.00 0.00 0.00 74 1005.1
20260504030404 7 244 0.0 0.0 0.00 0.00 0.00 75 1005.1
20260504025858 7 244 0.0 0.0 0.00 0.00 0.00 74 1005.1
20260504025351 7 244 0.0 0.0 0.00 0.00 0.00 73 1005.1
20260504024845 7 244 0.0 0.0 0.00 0.00 0.00 73 1005.1
20260504024339 7 244 0.0 0.0 0.00 0.00 0.00 72 1004.9
20260504023833 8 244 0.0 0.0 0.00 0.00 0.00 71 1005.0
20260504023327 8 244 0.0 0.0 0.00 0.00 0.00 69 1004.9
20260504022821 8 244 0.0 0.0 0.00 0.00 0.00 69 1004.9
20260504022315 8 244 0.0 0.0 0.00 0.00 0.00 68 1004.8
20260504021809 8 244 0.0 0.0 0.00 0.00 0.00 68 1004.8
20260504021304 8 244 0.0 0.0 0.00 0.00 0.00 67 1004.7
20260504020757 8 244 0.0 0.0 0.00 0.00 0.00 68 1004.7
20260504020251 9 244 0.0 0.0 0.00 0.00 0.00 68 1004.7
20260504015745 9 244 0.0 0.0 0.00 0.00 0.00 68 1004.6
20260504015238 9 244 0.0 0.0 0.00 0.00 0.00 67 1004.7
20260504014733 9 244 0.0 0.0 0.00 0.00 0.00 66 1004.6
20260504014227 10 244 0.0 0.0 0.00 0.00 0.00 64 1004.6
20260504013720 10 244 0.0 0.0 0.00 0.00 0.00 62 1004.5
20260504013214 10 244 0.0 0.0 0.00 0.00 0.00 61 1004.4
20260504012940 10 244 0.0 0.0 0.00 0.00 0.00 60 1004.4
20260504012202 10 244 0.0 0.0 0.00 0.00 0.00 58 1004.4
20260504011656 11 244 0.0 0.0 0.00 0.00 0.00 56 1004.4
20260504011152 11 244 0.0 0.0 0.00 0.00 0.00 57 1004.3
20260504010644 11 244 0.0 0.0 0.00 0.00 0.00 58 1004.4
20260504010139 11 244 0.0 0.0 0.00 0.00 0.00 55 1004.4
20260504005633 11 244 0.0 0.0 0.00 0.00 0.00 56 1004.4
20260504005127 12 244 0.0 0.0 0.00 0.00 0.00 53 1004.3
20260504004621 12 244 0.0 0.0 0.00 0.00 0.00 53 1004.2
20260504004114 12 244 0.0 0.0 0.00 0.00 0.00 51 1004.2
20260504003608 12 244 0.0 0.0 0.00 0.00 0.00 49 1004.2
20260504003334 13 244 0.0 0.0 0.00 0.00 0.00 47 1004.1
20260504002829 13 244 0.0 0.0 0.00 0.00 0.00 47 1004.1
20260504002322 13 244 0.0 0.0 0.00 0.00 0.00 46 1004.1
20260504001545 13 244 0.0 0.0 0.00 0.00 0.00 45 1004.1
20260504001310 13 244 0.0 1.6 0.00 0.00 0.00 45 1004.0
20260504000759 14 244 0.0 3.2 0.00 0.00 0.00 43 1003.9
20260504000254 14 244 0.0 3.2 0.00 0.00 0.00 40 1003.9
20260503235517 15 244 0.0 1.6 0.00 0.00 0.00 41 1004.0
20260503235011 15 244 0.0 3.2 0.00 0.00 0.00 41 1003.8
20260503234505 15 132 0.0 3.2 0.00 0.00 0.00 40 1003.8
20260503233959 15 132 0.0 3.2 0.00 0.00 0.00 40 1003.8
20260503233453 15 132 0.0 3.2 0.00 0.00 0.00 36 1003.9
20260503232946 15 132 0.0 3.2 0.00 0.00 0.00 38 1003.7
20260503232441 15 132 1.6 3.2 0.00 0.00 0.00 38 1003.8
20260503231944 15 132 1.6 4.8 0.00 0.00 0.00 38 1003.7
20260503231939 16 132 0.0 4.8 0.00 0.00 0.00 37 1003.6
20260503230938 16 125 0.0 4.8 0.00 0.00 0.00 38 1003.5
20260503230437 16 125 0.0 4.8 0.00 0.00 0.00 39 1003.6
20260503225937 16 125 1.6 4.8 0.00 0.00 0.00 38 1003.8
20260503225438 16 197 1.6 6.4 0.00 0.00 0.00 36 1003.6
20260503225207 16 196 1.6 6.4 0.00 0.00 0.00 36 1003.7
20260503224707 16 92 1.6 4.8 0.00 0.00 0.00 36 1003.7
20260503224207 16 92 1.6 6.4 0.00 0.00 0.00 38 1003.6
20260503223436 16 198 1.6 6.4 0.00 0.00 0.00 34 1003.6
20260503223208 16 194 1.6 6.4 0.00 0.00 0.00 35 1003.6
20260503222434 16 190 0.0 4.8 0.00 0.00 0.00 35 1003.6
20260503221933 16 190 1.6 4.8 0.00 0.00 0.00 36 1003.7
20260503221434 16 190 1.6 4.8 0.00 0.00 0.00 35 1003.7
20260503220936 16 190 1.6 6.4 0.00 0.00 0.00 35 1003.7
20260503220434 16 190 1.6 9.7 0.00 0.00 0.00 37 1003.8
20260503215935 16 55 3.2 9.7 0.00 0.00 0.00 35 1003.7
20260503215431 16 215 3.2 9.7 0.00 0.00 0.00 34 1003.6
20260503214931 16 215 1.6 9.7 0.00 0.00 0.00 33 1003.7
20260503214430 16 198 1.6 9.7 0.00 0.00 0.00 35 1003.8
20260503213930 16 105 3.2 17.7 0.00 0.00 0.00 33 1003.9
20260503213430 16 219 3.2 17.7 0.00 0.00 0.00 34 1003.8
20260503212929 16 214 3.2 9.7 0.00 0.00 0.00 34 1003.8
20260503212430 16 214 3.2 9.7 0.00 0.00 0.00 36 1003.9
20260503211929 16 210 3.2 9.7 0.00 0.00 0.00 34 1003.9
20260503211702 16 207 4.8 11.3 0.00 0.00 0.00 37 1003.9
20260503210930 16 213 3.2 11.3 0.00 0.00 0.00 35 1003.8
20260503210435 16 57 3.2 9.7 0.00 0.00 0.00 34 1003.8
20260503210430 16 213 3.2 9.7 0.00 0.00 0.00 34 1003.8
20260503205431 16 83 3.2 8.0 0.00 0.00 0.00 36 1003.9
20260503204929 16 188 3.2 8.0 0.00 0.00 0.00 37 1004.1
20260503204431 16 220 1.6 6.4 0.00 0.00 0.00 34 1004.1
20260503203930 16 35 3.2 8.0 0.00 0.00 0.00 38 1003.9
20260503203430 16 41 3.2 8.0 0.00 0.00 0.00 36 1004.0
20260503202929 16 5 3.2 8.0 0.00 0.00 0.00 35 1003.9
20260503202425 16 27 3.2 9.7 0.00 0.00 0.00 38 1004.0
20260503201917 16 215 3.2 9.7 0.00 0.00 0.00 38 1004.2
20260503201412 16 194 1.6 6.4 0.00 0.00 0.00 41 1004.2
20260503201407 16 16 3.2 14.5 0.00 0.00 0.00 37 1004.3
20260503200630 16 213 3.2 14.5 0.00 0.00 0.00 37 1004.3
20260503195854 16 213 3.2 11.3 0.00 0.00 0.00 37 1004.4
20260503195348 16 210 3.2 11.3 0.00 0.00 0.00 38 1004.6
20260503194842 16 213 3.2 11.3 0.00 0.00 0.00 40 1004.6
20260503194335 15 190 4.8 11.3 0.00 0.00 0.00 41 1004.6
20260503193829 15 214 3.2 9.7 0.00 0.00 0.00 41 1004.6
20260503193324 15 215 3.2 9.7 0.00 0.00 0.00 42 1004.8
20260503192818 15 215 3.2 16.1 0.00 0.00 0.00 40 1004.9
20260503192540 15 215 3.2 12.9 0.00 0.00 0.00 40 1005.2
20260503192414 15 214 4.8 16.1 0.00 0.00 0.00 39 1005.0
20260503191301 15 216 3.2 12.9 0.00 0.00 0.00 43 1005.1
20260503191027 15 211 3.2 9.7 0.00 0.00 0.00 42 1005.0
20260503190249 15 37 3.2 9.7 0.00 0.00 0.00 39 1005.1
20260503185742 15 157 3.2 9.7 0.00 0.00 0.00 43 1005.3
20260503185510 15 215 4.8 9.7 0.00 0.00 0.00 42 1005.3
20260503184731 15 213 3.2 12.9 0.00 0.00 0.00 41 1005.3
20260503184225 15 213 3.2 12.9 0.00 0.00 0.00 46 1005.4
20260503183718 14 184 3.2 9.7 0.00 0.00 0.00 42 1005.5
20260503183213 14 24 3.2 9.7 0.00 0.00 0.00 42 1005.5
20260503182708 14 215 3.2 11.3 0.00 0.00 0.00 43 1005.7
20260503182201 14 217 3.2 11.3 0.00 0.00 0.00 41 1005.8
20260503181654 14 210 4.8 11.3 0.00 0.00 0.00 45 1005.7
20260503181419 14 214 4.8 11.3 0.00 0.00 0.00 43 1005.6
20260503180642 14 211 3.2 9.7 0.00 0.00 0.00 44 1005.7
20260503180136 14 219 3.2 16.1 0.00 0.00 0.00 45 1005.7
20260503175631 13 216 3.2 16.1 0.00 0.00 0.00 47 1005.8
20260503175357 13 210 3.2 9.7 0.00 0.00 0.00 45 1005.8
20260503174619 13 211 3.2 9.7 0.00 0.00 0.00 43 1006.0
20260503174113 14 213 3.2 9.7 0.00 0.00 0.00 41 1006.1
20260503173607 13 155 3.2 9.7 0.00 0.00 0.00 50 1006.0
20260503173101 13 211 3.2 9.7 0.00 0.00 0.00 44 1005.9
20260503172556 13 211 3.2 9.7 0.00 0.00 0.00 51 1005.9
20260503172049 13 212 1.6 9.7 0.00 0.00 0.00 43 1006.1
20260503171542 13 29 3.2 8.0 0.00 0.00 0.00 43 1006.1
20260503171037 13 22 3.2 9.7 0.00 0.00 0.00 44 1006.0
20260503170802 13 13 3.2 11.3 0.00 0.00 0.00 44 1006.2